loading
|

STARLINK-11255, 60730

Orbit data source: Space-Track

STARLINK-11255, 60730 is a payload satellite owned by SpaceX/Seattle (US) in LEO that was launched on Wed, 28 Aug 2024 UTC via an FALCON 9 launch vehicle from the Air Force Eastern Test Range (AFETR). Payloads include a variety of satellites, spacecraft, and rockets equipped with specific instruments for various scientific and technological missions. These include communications satellites like Starlink; space stations such as the ISS; scientific satellites like the Hubble; Earth observation satellites from companies like Planet Labs, Umbra, and HawkEye 360; GPS; miniature CubeSats for education and research; and military/defense satellites.

Loading next visibility...
Loading greatness...
STARLINK-11255 details
Identifier
60730, 2024-152L
Orbit
LEO
Last TLE update8 hours ago
Origin
Flag of USSpaceX/Seattle (US)
ManufacturerSpaceX/Seattle
Mission statusOperational
MissionUnknown
Bus & MotorSTARLINK V2M, Unknown motor
Mass750 kg wet, ~700 kg dry
Launch date (UTC)
2024-08-28 (3 weeks ago)
Launch vehicle
FALCON 9
Launch site
Air Force Eastern Test Range (AFETR)
Object type
Payload
Rocket body
Debris
Radar Cross SectionLarge (>1 m²)

Expand to show TLE details & history

TLE from 8 hours ago
0 STARLINK-11255
1 60730U 24152L   24261.58335648 -.01084361  00000-0 -83508-2 0  9998
2 60730  53.1482 248.6959 0001003  78.4452 233.3704 15.73913104  4334
Epoch: 2024-09-17T14:00Z
Definitive object data (Epoch: 2024-09-17T14:00:01.999Z)
Latitude-36.82848°
Longitude7.76478°
Altitude359.989 km
Speed7.693 km/s
True Right ascension14h 19m 04s
True Declination-36° 39' 14"
Sunlit
Object was in daylight at TLE epoch
Predictive object data (real-time)
Latitude20.30553°
Longitude56.0599°
Altitude350.009 km
Speed7.702 km/s
Apparent Right ascension20h 55m 33s
Apparent Declination-22° 32' 50"
Sunlit
Object is in daylight
Predictive observer data (real-time)
Local Sidereal Time14:44:54
Azimuth106.118° ESE
Elevation-16.195°
Doppler factor1
Orbital elements
Apogee348.664 km
Perigee347.314 km
Semi-major axis6,726.126 km
Eccentricity0.0001003
Inclination53.1482°
RAAN248.6959°
Arg. of periapsis78.4452°
True anomaly233.36118°
Mean anomaly233.3704°
Eccentric anomaly233.36579°
Mean motion3.93456 °/min
BSTAR-0.0083508
Period91.5 mins
No data available

STARLINK-11255 Visibility forecast

Observer location: 39.9160978°, -105.1181434

STARLINK-11255 is not visible in the next 10 days
Span
Click to sort rows by Start time (UTC) header in descending order
Start Az.
Max El. time (UTC)
Max El. Az.
Max El.
End time (UTC)
End Az.